Weather in Labozhskoye

Russia / Nenets Autonomous Okrug     67°19′54″N   52°05′35″E
temp.,
°C
wind,
m/s
gust,
m/s
humid.,
%
clouds,
%
prec.,
mm/h
press.,
hPa
HPBL,
m
27 february, sat
sat2700:00−18s7109495 0.1 1010247
03:00−20s6109598 0.1 1011176
06:00−22sse6109642 0.0 1010135
09:00−21s7119445 0.0 1011225
12:00−19s7109184 0.0 1011362
15:00−18s7109190 0.0 1010346
18:00−17s61096100 0.3 1009347
21:00−16s5896100 0.8 1009304
28 february, sun
sun2800:00−15ssw5896100 0.6 1008321
03:00−16ssw4696100 0.9 1009162
06:00−18ssw459693 0.1 100856
09:00−18ssw459591 0.1 100990
12:00−15ssw469482 0.1 1009243
15:00−13ssw469590 0.3 1010198
18:00−14s459678 0.1 100973
21:00−12ssw569684 0.2 101095
1 march, mon
mon100:00−12sw599597 0.3 1008157
03:00−12ssw589598 0.3 1006126
06:00−11s81293100 0.1 1003247
09:00−9ssw101493100 0.6 1000456
12:00−6ssw101594100 1.2 995609
15:00−6ssw101495100 2.9 992603
18:00−4ssw91396100 2.2 989488
21:00−1w5898100 3.4 988237
2 march, tue
tue200:000wsw4799100 0.3 988263
03:00−5wsw559498 0.7 98973
06:00−9sw459482 0.0 98842
09:00−6sw469586 0.1 989147
12:00−4ssw579595 0.1 988332
15:00−3ssw689598 0.3 988502
18:00−5s6109599 0.6 987259
21:00−6sse599599 0.8 988177
3 march, wed
wed300:00−7se2296100 0.3 98922
03:00−7n2396100 0.8 99041
06:00−7nnw81294100 0.7 991402
09:00−7nw81293100 1.3 992593
12:00−8nw81192100 0.5 993480
15:00−9wnw71092100 0.6 994319
18:00−12wnw589599 0.0 994109
21:00−13w459684 0.0 99430